Location: Pinawa
(50.1500°N, 95.8830°W)
Time: 17:13:37
(UTC-05:00)

ISS - All Passes

Search period start: 28 March 2015 00:00
Search period end: 07 April 2015 00:00
Orbit: 396 x 406 km, 51.6° (Epoch: 28 March)

Date Brightness Start Highest point End Pass type
(mag) Time Alt. Az. Time Alt. Az. Time Alt. Az.
28 Mar - 01:27:16 10° SW 01:30:27 53° SSE 01:33:38 10° ENE night (unlit)
28 Mar - 03:03:36 10° W 03:06:51 67° N 03:10:05 10° ENE visible
28 Mar - 04:40:08 10° WNW 04:43:24 86° NNE 04:46:38 10° ESE visible
28 Mar - 06:16:45 10° W 06:19:35 28° SSW 06:22:23 10° SSE visible
29 Mar - 00:34:11 10° SW 00:37:10 35° SSE 00:40:11 10° E night (unlit)
29 Mar - 02:10:11 10° W 02:13:26 77° NNW 02:16:42 10° ENE night (unlit)
29 Mar - 03:46:44 10° WNW 03:50:00 71° N 03:53:14 10° E visible
29 Mar - 05:23:13 10° W 05:26:20 43° SSW 05:29:25 10° SE visible
29 Mar - 23:41:20 10° SSW 23:43:55 22° SE 23:46:34 10° E night (unlit)
30 Mar - 01:16:46 10° WSW 01:20:02 83° SSE 01:23:17 10° ENE night (unlit)
30 Mar - 02:53:18 10° W 02:56:32 65° N 02:59:46 10° E night (unlit)
30 Mar - 04:29:46 10° WNW 04:33:00 66° SSW 04:36:12 10° ESE visible
30 Mar - 06:06:52 10° W 06:08:58 16° SW 06:10:59 10° S visible
30 Mar - 22:48:58 10° S 22:50:43 14° SE 22:52:31 10° ESE night (unlit)
31 Mar - 00:23:25 10° SW 00:26:38 59° SSE 00:29:51 10° ENE night (unlit)
31 Mar - 01:59:48 10° W 02:03:03 66° N 02:06:18 10° E night (unlit)
31 Mar - 03:36:19 10° WNW 03:39:34 89° WSW 03:42:50 10° ESE visible
31 Mar - 05:12:58 10° W 05:15:43 25° SW 05:18:26 10° SSE visible
31 Mar - 23:30:12 10° SW 23:33:15 38° SSE 23:36:19 10° E night (unlit)
01 Apr - 01:06:17 10° W 01:09:33 74° NNW 01:12:49 10° ENE night (unlit)
01 Apr - 02:42:51 10° WNW 02:46:06 73° N 02:49:21 10° E night (unlit)
01 Apr - 04:19:20 10° W 04:22:25 39° SSW 04:25:26 10° SE visible
01 Apr - 22:37:12 10° SSW 22:39:54 25° SE 22:42:39 10° E night (unlit)
02 Apr - 00:12:47 10° WSW 00:16:03 88° SSE 00:19:19 10° ENE night (unlit)
02 Apr - 01:49:19 10° W 01:52:34 65° N 01:55:48 10° E night (unlit)
02 Apr - 03:25:46 10° WNW 03:28:59 60° SSW 03:32:11 10° ESE night (unlit)
02 Apr - 05:03:03 10° WSW 05:04:55 14° SW 05:06:41 10° S night (unlit)
02 Apr - 21:44:36 10° S 21:46:36 16° SE 21:48:39 10° E visible
02 Apr - 23:19:19 10° WSW 23:22:33 64° SSE 23:25:47 10° ENE night (unlit)
03 Apr - 00:55:44 10° W 00:58:59 65° N 01:02:14 10° E night (unlit)
03 Apr - 02:32:14 10° WNW 02:35:31 85° SSW 02:38:45 10° ESE night (unlit)
03 Apr - 04:08:57 10° W 04:11:36 23° SW 04:14:13 10° SSE night (unlit)
03 Apr - 22:25:58 10° SW 22:29:04 42° SSE 22:32:11 10° E visible
04 Apr - 00:02:08 10° W 00:05:24 72° N 00:08:39 10° ENE night (unlit)
04 Apr - 01:38:40 10° WNW 01:41:56 76° N 01:45:11 10° E night (unlit)
04 Apr - 03:15:11 10° W 03:18:12 36° SSW 03:21:12 10° SE night (unlit)
04 Apr - 21:32:49 10° SSW 21:35:38 27° SSE 21:38:28 10° E visible
04 Apr - 23:08:31 10° WSW 23:11:48 87° NNW 23:15:04 10° ENE visible
05 Apr - 00:45:05 10° W 00:48:19 66° N 00:51:34 10° E night (unlit)
05 Apr - 02:21:31 10° WNW 02:24:43 55° SSW 02:27:54 10° SE night (unlit)
05 Apr - 03:59:01 10° WSW 04:00:36 13° SW 04:02:05 10° SSW night (unlit)
05 Apr - 20:40:01 10° S 20:42:13 17° SE 20:44:28 10° E visible
05 Apr - 22:14:58 10° WSW 22:18:12 69° SSE 22:21:27 10° ENE visible
05 Apr - 23:51:25 10° W 23:54:39 64° N 23:57:54 10° E visible
06 Apr - 01:27:54 10° WNW 01:31:09 80° SSW 01:34:24 10° ESE night (unlit)
06 Apr - 03:04:40 10° W 03:07:12 21° SW 03:09:42 10° SSE night (unlit)
06 Apr - 19:48:24 10° SE 19:48:50 10° SE 19:49:23 10° SE daylight
06 Apr - 21:21:29 10° SW 21:24:38 46° SSE 21:27:47 10° ENE visible
06 Apr - 22:57:43 10° W 23:00:59 70° N 23:04:14 10° ENE visible
